PWSweather.com
Personal Weather Stations
Station Observations
SHAHALMS1
Eftra, Falkenberg, HA

EftraFalkenberg, HA

Lat: 56.85, Lon: 12.65

Elevation: 140

Station Type:

http://hem.passagen.se/risarp101

High Low Average
Temperature 36.5°F2.5°C 32.9°F0.5°C 34.8°F1.6°C
Dew Point 35.2°F1.8°C 30.8°F-0.7°C 33.2°F0.7°C
Winds 11.3 mph 18.2 kmh Calm Calm 2.0 mph SSE3.2 kmh SSE
Wind Gusts 24.7 mph39.8 kmh -- 5.0 mph8.0 kmh
Humidity 96% 91% 94%
Pressure 29.30 in992.2 mb 28.88 in978.0 mb -
Precipitation 0.46 in11.7 mm - -
Hour Temp Dew Point Humidity Winds Wind Gusts Pressure Precip Precip Rate Daily Precip Total
12:00 AM 34.2°F1.2°C 32.9°F0.5°C 95% 4.0 mph W6.4 kmh W 8.6 mph13.8 kmh 28.91 in979.0 mb 0.00 in0.0 mm 0.00 in0.0 mm 0.00 in0.0 mm
12:15 AM 35.1°F1.7°C 34.0°F1.1°C 96% 8.4 mph W13.5 kmh W 17.9 mph28.8 kmh 28.91 in979.0 mb 0.00 in0.0 mm 0.00 in0.0 mm 0.00 in0.0 mm
12:30 AM 35.6°F2.0°C 34.6°F1.4°C 96% 9.0 mph W14.5 kmh W 22.5 mph36.2 kmh 28.91 in979.0 mb 0.00 in0.0 mm 0.00 in0.0 mm 0.00 in0.0 mm
12:45 AM 35.8°F2.1°C 34.8°F1.6°C 96% 7.8 mph W12.6 kmh W 15.7 mph25.3 kmh 28.91 in979.0 mb 0.00 in0.0 mm 0.00 in0.0 mm 0.00 in0.0 mm
01:00 AM 36.1°F2.3°C 34.8°F1.6°C 95% 7.4 mph W11.9 kmh W 13.6 mph21.9 kmh 28.91 in979.0 mb 0.00 in0.0 mm 0.00 in0.0 mm 0.00 in0.0 mm
01:15 AM 36.3°F2.4°C 35.0°F1.7°C 95% 8.5 mph W13.7 kmh W 19.7 mph31.7 kmh 28.91 in979.0 mb 0.00 in0.0 mm 0.00 in0.0 mm 0.00 in0.0 mm
01:30 AM 36.5°F2.5°C 35.2°F1.8°C 95% 10.2 mph W16.4 kmh W 17.5 mph28.2 kmh 28.91 in979.0 mb 0.00 in0.0 mm 0.00 in0.0 mm 0.00 in0.0 mm
01:45 AM 36.5°F2.5°C 34.9°F1.6°C 94% 11.3 mph W18.2 kmh W 24.7 mph39.8 kmh 28.88 in978.0 mb 0.00 in0.0 mm 0.00 in0.0 mm 0.00 in0.0 mm
02:00 AM 36.5°F2.5°C 34.9°F1.6°C 94% 9.3 mph W15.0 kmh W 20.0 mph32.2 kmh 28.91 in979.0 mb 0.00 in0.0 mm 0.00 in0.0 mm 0.00 in0.0 mm
02:15 AM 36.1°F2.3°C 34.3°F1.3°C 93% 8.2 mph W13.2 kmh W 16.1 mph25.9 kmh 28.91 in979.0 mb 0.04 in1.0 mm 0.16 in4.1 mm 0.04 in1.0 mm
02:30 AM 36.0°F2.2°C 34.4°F1.3°C 94% 5.9 mph W9.5 kmh W 13.6 mph21.9 kmh 28.91 in979.0 mb 0.04 in1.0 mm 0.00 in0.0 mm 0.04 in1.0 mm
02:45 AM 36.1°F2.3°C 34.6°F1.4°C 94% 6.2 mph W10.0 kmh W 12.5 mph20.1 kmh 28.88 in978.0 mb 0.09 in2.3 mm 0.20 in5.1 mm 0.09 in2.3 mm
03:00 AM 36.3°F2.4°C 35.0°F1.7°C 95% 6.3 mph W10.1 kmh W 16.8 mph27.0 kmh 28.91 in979.0 mb 0.09 in2.3 mm 0.00 in0.0 mm 0.09 in2.3 mm
03:15 AM 36.3°F2.4°C 34.8°F1.6°C 94% Calm Calm -- 28.88 in978.0 mb 0.04 in1.0 mm 0.00 in0.0 mm 0.09 in2.3 mm
03:30 AM 36.5°F2.5°C 35.2°F1.8°C 95% 2.3 mph NW3.7 kmh NW 7.9 mph12.7 kmh 28.91 in979.0 mb 0.09 in2.3 mm 0.20 in5.1 mm 0.13 in3.3 mm
03:45 AM 36.1°F2.3°C 34.6°F1.4°C 94% 1.3 mph NW2.1 kmh NW 5.4 mph8.7 kmh 28.94 in980.0 mb 0.04 in1.0 mm 0.00 in0.0 mm 0.13 in3.3 mm
04:00 AM 36.0°F2.2°C 34.4°F1.3°C 94% 0.9 mph WNW1.4 kmh WNW 6.8 mph10.9 kmh 28.94 in980.0 mb 0.04 in1.0 mm 0.00 in0.0 mm 0.13 in3.3 mm
04:15 AM 35.6°F2.0°C 34.0°F1.1°C 94% 0.3 mph W0.5 kmh W 3.9 mph6.3 kmh 28.97 in981.0 mb 0.04 in1.0 mm 0.00 in0.0 mm 0.13 in3.3 mm
04:30 AM 35.6°F2.0°C 34.0°F1.1°C 94% 3.1 mph W5.0 kmh W 9.7 mph15.6 kmh 28.97 in981.0 mb 0.06 in1.5 mm 0.08 in2.0 mm 0.19 in4.8 mm
04:45 AM 35.2°F1.8°C 33.7°F0.9°C 94% 2.4 mph WNW3.9 kmh WNW 8.9 mph14.3 kmh 28.97 in981.0 mb 0.06 in1.5 mm 0.00 in0.0 mm 0.19 in4.8 mm
05:00 AM 34.7°F1.5°C 33.2°F0.7°C 94% 2.0 mph WNW3.2 kmh WNW 7.2 mph11.6 kmh 28.97 in981.0 mb 0.06 in1.5 mm 0.00 in0.0 mm 0.19 in4.8 mm
05:15 AM 34.5°F1.4°C 33.0°F0.6°C 94% 2.2 mph W3.5 kmh W 6.1 mph9.8 kmh 29.00 in982.1 mb 0.06 in1.5 mm 0.00 in0.0 mm 0.19 in4.8 mm
05:30 AM 34.2°F1.2°C 32.6°F0.3°C 94% 2.5 mph WNW4.0 kmh WNW 10.7 mph17.2 kmh 29.00 in982.1 mb 0.00 in0.0 mm 0.00 in0.0 mm 0.19 in4.8 mm
05:45 AM 34.0°F1.1°C 32.4°F0.2°C 94% 0.6 mph W1.0 kmh W 5.7 mph9.2 kmh 29.03 in983.1 mb 0.04 in1.0 mm 0.16 in4.1 mm 0.23 in5.8 mm
06:00 AM 33.8°F1.0°C 32.3°F0.2°C 94% 0.5 mph W0.8 kmh W 5.7 mph9.2 kmh 29.03 in983.1 mb 0.04 in1.0 mm 0.00 in0.0 mm 0.23 in5.8 mm
06:15 AM 33.8°F1.0°C 32.3°F0.2°C 94% Calm Calm -- 29.03 in983.1 mb 0.04 in1.0 mm 0.00 in0.0 mm 0.23 in5.8 mm
06:30 AM 33.8°F1.0°C 32.3°F0.2°C 94% Calm Calm 1.4 mph2.3 kmh 29.06 in984.1 mb 0.04 in1.0 mm 0.00 in0.0 mm 0.23 in5.8 mm
06:45 AM 33.8°F1.0°C 32.3°F0.2°C 94% Calm Calm -- 29.00 in982.1 mb 0.00 in0.0 mm 0.00 in0.0 mm 0.23 in5.8 mm
07:00 AM 34.0°F1.1°C 32.7°F0.4°C 95% Calm Calm -- 29.03 in983.1 mb 0.00 in0.0 mm 0.00 in0.0 mm 0.23 in5.8 mm
07:15 AM 34.0°F1.1°C 32.4°F0.2°C 94% Calm Calm -- 29.03 in983.1 mb 0.00 in0.0 mm 0.00 in0.0 mm 0.23 in5.8 mm
07:30 AM 34.0°F1.1°C 32.4°F0.2°C 94% 0.3 mph NW0.5 kmh NW 3.9 mph6.3 kmh 29.03 in983.1 mb 0.00 in0.0 mm 0.00 in0.0 mm 0.23 in5.8 mm
07:45 AM 34.0°F1.1°C 32.4°F0.2°C 94% 0.1 mph NW0.2 kmh NW 1.8 mph2.9 kmh 29.06 in984.1 mb 0.00 in0.0 mm 0.00 in0.0 mm 0.23 in5.8 mm
08:00 AM 33.8°F1.0°C 32.3°F0.2°C 94% Calm Calm -- 29.09 in985.1 mb 0.00 in0.0 mm 0.00 in0.0 mm 0.23 in5.8 mm
08:15 AM 33.8°F1.0°C 32.3°F0.2°C 94% 0.1 mph NW0.2 kmh NW 1.4 mph2.3 kmh 29.09 in985.1 mb 0.00 in0.0 mm 0.00 in0.0 mm 0.23 in5.8 mm
08:30 AM 33.6°F0.9°C 32.1°F0.1°C 94% Calm Calm -- 29.09 in985.1 mb 0.00 in0.0 mm 0.00 in0.0 mm 0.23 in5.8 mm
08:45 AM 33.6°F0.9°C 32.1°F0.1°C 94% Calm Calm -- 29.09 in985.1 mb 0.00 in0.0 mm 0.00 in0.0 mm 0.23 in5.8 mm
09:00 AM 33.8°F1.0°C 32.5°F0.3°C 95% Calm Calm -- 29.06 in984.1 mb 0.04 in1.0 mm 0.05 in1.3 mm 0.28 in7.1 mm
09:15 AM 33.8°F1.0°C 32.5°F0.3°C 95% Calm Calm -- 29.09 in985.1 mb 0.04 in1.0 mm 0.00 in0.0 mm 0.28 in7.1 mm
09:30 AM 34.0°F1.1°C 32.7°F0.4°C 95% Calm Calm -- 29.09 in985.1 mb 0.04 in1.0 mm 0.00 in0.0 mm 0.28 in7.1 mm
09:45 AM 34.2°F1.2°C 32.9°F0.5°C 95% Calm Calm -- 29.12 in986.1 mb 0.04 in1.0 mm 0.00 in0.0 mm 0.28 in7.1 mm
10:00 AM 34.5°F1.4°C 33.2°F0.7°C 95% Calm Calm -- 29.12 in986.1 mb 0.00 in0.0 mm 0.00 in0.0 mm 0.28 in7.1 mm
10:15 AM 34.9°F1.6°C 33.6°F0.9°C 95% Calm Calm -- 29.12 in986.1 mb 0.00 in0.0 mm 0.00 in0.0 mm 0.28 in7.1 mm
10:30 AM 35.2°F1.8°C 34.0°F1.1°C 95% Calm Calm -- 29.12 in986.1 mb 0.00 in0.0 mm 0.00 in0.0 mm 0.28 in7.1 mm
10:45 AM 35.4°F1.9°C 34.1°F1.2°C 95% Calm Calm -- 29.12 in986.1 mb 0.00 in0.0 mm 0.00 in0.0 mm 0.28 in7.1 mm
11:00 AM 35.6°F2.0°C 34.3°F1.3°C 95% 0.6 mph WSW1.0 kmh WSW 4.7 mph7.6 kmh 29.12 in986.1 mb 0.00 in0.0 mm 0.00 in0.0 mm 0.28 in7.1 mm
11:15 AM 36.0°F2.2°C 34.7°F1.5°C 95% 0.2 mph W0.3 kmh W 4.3 mph6.9 kmh 29.15 in987.1 mb 0.04 in1.0 mm 0.16 in4.1 mm 0.32 in8.1 mm
11:30 AM 36.1°F2.3°C 34.8°F1.6°C 95% 0.2 mph W0.3 kmh W 3.6 mph5.8 kmh 29.15 in987.1 mb 0.04 in1.0 mm 0.00 in0.0 mm 0.32 in8.1 mm
11:45 AM 36.1°F2.3°C 34.8°F1.6°C 95% Calm Calm -- 29.15 in987.1 mb 0.04 in1.0 mm 0.00 in0.0 mm 0.32 in8.1 mm
12:00 PM 36.3°F2.4°C 35.0°F1.7°C 95% 0.5 mph W0.8 kmh W 4.7 mph7.6 kmh 29.15 in987.1 mb 0.04 in1.0 mm 0.00 in0.0 mm 0.32 in8.1 mm
12:15 PM 36.1°F2.3°C 34.6°F1.4°C 94% 1.3 mph W2.1 kmh W 5.7 mph9.2 kmh 29.12 in986.1 mb 0.00 in0.0 mm 0.00 in0.0 mm 0.32 in8.1 mm
12:30 PM 36.1°F2.3°C 34.6°F1.4°C 94% 2.9 mph W4.7 kmh W 8.9 mph14.3 kmh 29.15 in987.1 mb 0.04 in1.0 mm 0.16 in4.1 mm 0.36 in9.1 mm
12:45 PM 36.0°F2.2°C 34.4°F1.3°C 94% 0.3 mph W0.5 kmh W 6.8 mph10.9 kmh 29.15 in987.1 mb 0.04 in1.0 mm 0.00 in0.0 mm 0.36 in9.1 mm
01:00 PM 36.0°F2.2°C 34.4°F1.3°C 94% 1.1 mph W1.8 kmh W 6.1 mph9.8 kmh 29.15 in987.1 mb 0.04 in1.0 mm 0.00 in0.0 mm 0.36 in9.1 mm
01:15 PM 36.0°F2.2°C 34.4°F1.3°C 94% 1.6 mph W2.6 kmh W 6.4 mph10.3 kmh 29.15 in987.1 mb 0.04 in1.0 mm 0.00 in0.0 mm 0.36 in9.1 mm
01:30 PM 35.8°F2.1°C 34.2°F1.2°C 94% 0.5 mph W0.8 kmh W 5.7 mph9.2 kmh 29.15 in987.1 mb 0.00 in0.0 mm 0.00 in0.0 mm 0.36 in9.1 mm
01:45 PM 35.8°F2.1°C 34.2°F1.2°C 94% 3.8 mph W6.1 kmh W 11.5 mph18.5 kmh 29.18 in988.1 mb 0.00 in0.0 mm 0.00 in0.0 mm 0.36 in9.1 mm
02:00 PM 35.6°F2.0°C 34.0°F1.1°C 94% 0.2 mph W0.3 kmh W 3.6 mph5.8 kmh 29.18 in988.1 mb 0.04 in1.0 mm 0.05 in1.3 mm 0.41 in10.4 mm
02:15 PM 35.2°F1.8°C 33.4°F0.8°C 93% 4.1 mph WNW6.6 kmh WNW 17.2 mph27.7 kmh 29.18 in988.1 mb 0.04 in1.0 mm 0.00 in0.0 mm 0.41 in10.4 mm
02:30 PM 35.2°F1.8°C 33.7°F0.9°C 94% 2.0 mph W3.2 kmh W 8.6 mph13.8 kmh 29.21 in989.2 mb 0.04 in1.0 mm 0.00 in0.0 mm 0.41 in10.4 mm
02:45 PM 35.4°F1.9°C 33.9°F1.1°C 94% 1.6 mph W2.6 kmh W 8.6 mph13.8 kmh 29.21 in989.2 mb 0.00 in0.0 mm 0.00 in0.0 mm 0.41 in10.4 mm
03:00 PM 34.3°F1.3°C 32.3°F0.2°C 92% 2.2 mph W3.5 kmh W 8.6 mph13.8 kmh 29.21 in989.2 mb 0.00 in0.0 mm 0.00 in0.0 mm 0.41 in10.4 mm
03:15 PM 34.3°F1.3°C 32.5°F0.3°C 93% 0.7 mph W1.1 kmh W 5.7 mph9.2 kmh 29.21 in989.2 mb 0.00 in0.0 mm 0.00 in0.0 mm 0.41 in10.4 mm
03:30 PM 34.7°F1.5°C 33.2°F0.7°C 94% 0.7 mph W1.1 kmh W 5.4 mph8.7 kmh 29.18 in988.1 mb 0.06 in1.5 mm 0.24 in6.1 mm 0.46 in11.7 mm
03:45 PM 34.7°F1.5°C 33.2°F0.7°C 94% 0.6 mph W1.0 kmh W 6.4 mph10.3 kmh 29.18 in988.1 mb 0.06 in1.5 mm 0.00 in0.0 mm 0.46 in11.7 mm
04:00 PM 34.5°F1.4°C 33.0°F0.6°C 94% Calm Calm -- 29.21 in989.2 mb 0.06 in1.5 mm 0.00 in0.0 mm 0.46 in11.7 mm
04:15 PM 34.5°F1.4°C 33.0°F0.6°C 94% Calm Calm -- 29.21 in989.2 mb 0.06 in1.5 mm 0.00 in0.0 mm 0.46 in11.7 mm
04:30 PM 34.5°F1.4°C 33.0°F0.6°C 94% Calm Calm -- 29.21 in989.2 mb 0.00 in0.0 mm 0.00 in0.0 mm 0.46 in11.7 mm
04:45 PM 34.7°F1.5°C 33.2°F0.7°C 94% 0.1 mph W0.2 kmh W 3.9 mph6.3 kmh 29.24 in990.2 mb 0.00 in0.0 mm 0.00 in0.0 mm 0.46 in11.7 mm
05:00 PM 34.5°F1.4°C 33.0°F0.6°C 94% Calm Calm 1.8 mph2.9 kmh 29.24 in990.2 mb 0.00 in0.0 mm 0.00 in0.0 mm 0.46 in11.7 mm
05:15 PM 34.5°F1.4°C 33.0°F0.6°C 94% Calm Calm -- 29.24 in990.2 mb 0.00 in0.0 mm 0.00 in0.0 mm 0.46 in11.7 mm
05:30 PM 34.5°F1.4°C 33.0°F0.6°C 94% Calm Calm -- 29.24 in990.2 mb 0.00 in0.0 mm 0.00 in0.0 mm 0.46 in11.7 mm
05:45 PM 34.3°F1.3°C 32.8°F0.4°C 94% Calm Calm -- 29.24 in990.2 mb 0.00 in0.0 mm 0.00 in0.0 mm 0.46 in11.7 mm
06:00 PM 34.2°F1.2°C 32.3°F0.2°C 93% Calm Calm -- 29.24 in990.2 mb 0.00 in0.0 mm 0.00 in0.0 mm 0.46 in11.7 mm
06:15 PM 34.0°F1.1°C 32.4°F0.2°C 94% Calm Calm -- 29.24 in990.2 mb 0.00 in0.0 mm 0.00 in0.0 mm 0.46 in11.7 mm
06:30 PM 34.0°F1.1°C 32.4°F0.2°C 94% Calm Calm -- 29.27 in991.2 mb 0.00 in0.0 mm 0.00 in0.0 mm 0.46 in11.7 mm
06:45 PM 33.8°F1.0°C 32.3°F0.2°C 94% Calm Calm -- 29.27 in991.2 mb 0.00 in0.0 mm 0.00 in0.0 mm 0.46 in11.7 mm
07:00 PM 33.8°F1.0°C 32.3°F0.2°C 94% Calm Calm -- 29.27 in991.2 mb 0.00 in0.0 mm 0.00 in0.0 mm 0.46 in11.7 mm
07:15 PM 33.8°F1.0°C 32.3°F0.2°C 94% Calm Calm -- 29.27 in991.2 mb 0.00 in0.0 mm 0.00 in0.0 mm 0.46 in11.7 mm
07:30 PM 33.6°F0.9°C 32.1°F0.1°C 94% Calm Calm -- 29.27 in991.2 mb 0.00 in0.0 mm 0.00 in0.0 mm 0.46 in11.7 mm
07:45 PM 33.4°F0.8°C 31.9°F-0.1°C 94% Calm Calm -- 29.27 in991.2 mb 0.00 in0.0 mm 0.00 in0.0 mm 0.46 in11.7 mm
08:00 PM 33.6°F0.9°C 32.1°F0.1°C 94% 0.4 mph WNW0.6 kmh WNW 4.7 mph7.6 kmh 29.24 in990.2 mb 0.00 in0.0 mm 0.00 in0.0 mm 0.46 in11.7 mm
08:15 PM 33.8°F1.0°C 32.3°F0.2°C 94% 0.1 mph NW0.2 kmh NW 3.2 mph5.1 kmh 29.27 in991.2 mb 0.00 in0.0 mm 0.00 in0.0 mm 0.46 in11.7 mm
08:30 PM 34.0°F1.1°C 32.4°F0.2°C 94% Calm Calm -- 29.27 in991.2 mb 0.00 in0.0 mm 0.00 in0.0 mm 0.46 in11.7 mm
08:45 PM 33.8°F1.0°C 32.0°F0.0°C 93% Calm Calm -- 29.27 in991.2 mb 0.00 in0.0 mm 0.00 in0.0 mm 0.46 in11.7 mm
09:00 PM 33.8°F1.0°C 32.0°F0.0°C 93% Calm Calm -- 29.30 in992.2 mb 0.00 in0.0 mm 0.00 in0.0 mm 0.46 in11.7 mm
09:15 PM 34.0°F1.1°C 32.2°F0.1°C 93% Calm Calm -- 29.27 in991.2 mb 0.00 in0.0 mm 0.00 in0.0 mm 0.46 in11.7 mm
09:30 PM 33.6°F0.9°C 31.5°F-0.3°C 92% Calm Calm -- 29.30 in992.2 mb 0.00 in0.0 mm 0.00 in0.0 mm 0.46 in11.7 mm
09:45 PM 33.3°F0.7°C 31.2°F-0.4°C 92% Calm Calm -- 29.30 in992.2 mb 0.00 in0.0 mm 0.00 in0.0 mm 0.46 in11.7 mm
10:01 PM 33.1°F0.6°C 31.0°F-0.6°C 92% Calm Calm -- 29.30 in992.2 mb 0.00 in0.0 mm 0.00 in0.0 mm 0.46 in11.7 mm
10:15 PM 32.9°F0.5°C 30.8°F-0.7°C 92% Calm Calm -- 29.30 in992.2 mb 0.00 in0.0 mm 0.00 in0.0 mm 0.46 in11.7 mm
10:30 PM 33.3°F0.7°C 31.5°F-0.3°C 93% Calm Calm 2.1 mph3.4 kmh 29.27 in991.2 mb 0.00 in0.0 mm 0.00 in0.0 mm 0.46 in11.7 mm
10:45 PM 34.0°F1.1°C 32.4°F0.2°C 94% 0.1 mph S0.2 kmh S 4.7 mph7.6 kmh 29.30 in992.2 mb 0.00 in0.0 mm 0.00 in0.0 mm 0.46 in11.7 mm
11:00 PM 34.3°F1.3°C 32.3°F0.2°C 92% 1.7 mph S2.7 kmh S 7.9 mph12.7 kmh 29.27 in991.2 mb 0.00 in0.0 mm 0.00 in0.0 mm 0.46 in11.7 mm
11:15 PM 34.5°F1.4°C 32.2°F0.1°C 91% 2.1 mph S3.4 kmh S 7.5 mph12.1 kmh 29.30 in992.2 mb 0.00 in0.0 mm 0.00 in0.0 mm 0.46 in11.7 mm
11:30 PM 34.5°F1.4°C 32.2°F0.1°C 91% 0.3 mph S0.5 kmh S 3.9 mph6.3 kmh 29.27 in991.2 mb 0.00 in0.0 mm 0.00 in0.0 mm 0.46 in11.7 mm
11:45 PM 34.5°F1.4°C 32.2°F0.1°C 91% 0.4 mph SSE0.6 kmh SSE 9.3 mph15.0 kmh 29.27 in991.2 mb 0.00 in0.0 mm 0.00 in0.0 mm 0.46 in11.7 mm